Flag for United Kingdom Weather past 2 weeks in Liverpool, England, United Kingdom

Now
59 °F

Passing clouds.


Feels Like: 56 °F
Forecast: 55 / 60 °F
Wind: 14 mph from Northwest

Location: Liverpool Airport

Current Time: Sep 5, 2015 at 6:02:48 PM

Latest Report: Sep 5, 2015 at 5:20 PM


Visibility: N/A

Pressure: 30.27 "Hg

Humidity: 55%

Dew point: 43 °F

Location of LiverpoolLocation

Historic Weather in Liverpool — Graph

°F

Liverpool temperature yesterday

Maximum temperature yesterday: 61 °F (at 11:20 AM)
Minimum temperature yesterday: 52 °F (at 7:20 AM)
Average temperature yesterday: 57 °F

Past Weeks' High & Low Weather Summary

 TemperatureHumidityPressure
High77 °F (Aug 23, 12:20 PM)100% (Aug 21, 8:50 PM)30.27 "Hg (Aug 21, 8:50 PM)
Low52 °F (Aug 24, 5:20 AM)49% (Aug 27, 4:50 PM)29.42 "Hg (Aug 26, 4:50 AM)
Average59 °F81%29.88 "Hg
* Reported Aug 21 4:20 PM — Sep 5 4:50 PM, Liverpool, Weather by CustomWeather, © 2015

Note: Actual official high and low records may vary slightly from our data, if they occured in-between our weather recording intervals... More about our weather records

Advertising

Liverpool weather history for previous 24 hours

 ConditionsComfort  
Time TempWeatherWind HumidityBarometerVisibility
4:50 PM
Sat, Sep 5
59 °FScattered clouds.13 mph59%30.27 "HgN/A
4:20 PM61 °FScattered clouds.10 mph55%30.27 "HgN/A
3:50 PM59 °FScattered clouds.13 mph55%30.27 "HgN/A
3:20 PM59 °FScattered clouds.13 mph59%30.27 "HgN/A
2:50 PM59 °FScattered clouds.13 mph51%30.27 "HgN/A
2:20 PM59 °FScattered clouds.9 mph55%30.27 "HgN/A
1:50 PM59 °FScattered clouds.10 mph55%30.27 "HgN/A
1:20 PM59 °FScattered clouds.8 mph59%30.27 "HgN/A
12:50 PM59 °FScattered clouds.8 mph63%30.24 "HgN/A
12:20 PM59 °FScattered clouds.9 mph59%30.24 "HgN/A
11:50 AM59 °FScattered clouds.12 mph63%30.24 "HgN/A
11:20 AM55 °FScattered clouds.9 mph67%30.24 "HgN/A
10:50 AM55 °FScattered clouds.10 mph72%30.24 "HgN/A
10:20 AM55 °FScattered clouds.12 mph72%30.21 "HgN/A
9:50 AM55 °FScattered clouds.8 mph77%30.21 "HgN/A
9:20 AM54 °FPartly sunny.8 mph82%30.21 "HgN/A
8:50 AM52 °FPartly sunny.9 mph82%30.18 "HgN/A
8:20 AM52 °FPartly sunny.6 mph88%30.18 "HgN/A
7:50 AM52 °FPartly sunny.9 mph88%30.15 "HgN/A
7:20 AM52 °FScattered showers. Passing clouds.6 mph94%30.15 "HgN/A
6:50 AM52 °FMixture of precip. Passing clouds.7 mph94%30.15 "HgN/A
6:20 AM52 °FPassing clouds.9 mph94%30.12 "HgN/A
5:50 AM52 °FScattered showers. Partly cloudy.14 mph94%30.09 "HgN/A
5:20 AM55 °FPartly cloudy.12 mph94%30.09 "HgN/A
4:20 AM55 °FPassing clouds.7 mph88%30.07 "HgN/A
3:50 AM55 °FPartly cloudy.8 mph82%30.07 "HgN/A
3:20 AM57 °FPartly cloudy.8 mph82%30.07 "HgN/A
2:50 AM55 °FPassing clouds.12 mph88%30.07 "HgN/A
2:20 AM55 °FPassing clouds.8 mph82%30.07 "HgN/A
1:50 AM57 °FPassing clouds.10 mph77%30.07 "HgN/A
1:20 AM57 °FPassing clouds.14 mph77%30.07 "HgN/A
12:50 AM57 °FPassing clouds.13 mph88%30.07 "HgN/A
12:20 AM57 °FScattered showers. Partly cloudy.14 mph94%30.07 "HgN/A
11:50 PM
Fri, Sep 4
57 °FSprinkles. Partly cloudy.14 mph88%30.07 "HgN/A
11:20 PM57 °FSprinkles. Partly cloudy.13 mph88%30.07 "HgN/A
10:20 PM59 °FSprinkles. Passing clouds.15 mph88%30.07 "HgN/A
9:50 PM57 °FSprinkles. Passing clouds.14 mph94%30.07 "HgN/A
9:20 PM59 °FSprinkles. Passing clouds.15 mph88%30.07 "HgN/A
8:50 PM59 °FScattered clouds.13 mph88%30.07 "HgN/A
8:20 PM59 °FBroken clouds.14 mph82%30.07 "HgN/A
7:50 PM59 °FBroken clouds.15 mph82%30.07 "HgN/A
7:20 PM59 °FScattered clouds.12 mph77%30.07 "HgN/A
6:50 PM59 °FScattered clouds.17 mph72%30.07 "HgN/A
6:20 PM59 °FPartly sunny.14 mph72%30.07 "HgN/A
Weather by CustomWeather, © 2015

See weather overviewHow to use our weather pages